Trinidad, Colorado, United States (81082)
Lat: 37.17N, Lon: 104.5W
Wx Zone: COZ088
Local Info
Past Weather Observations for Thursday, May 26, 2016

NOTE: This archive is for the closest National Weather Service station to Trinidad. Information may differ from the station used for current weather conditions.

Click here for Long-term Archive

Time Weather Temperature Dewpoint Humidity Pressure Winds Precip Visibility
23:54
Clear
39°F / 4°C 34°F / 1°C 81% 29.92 in
(1013 mb)
SSE 5.8 mph
(SSE 9 kph)
- 10SM
22:54
Clear
43°F / 6°C 36°F / 2°C 76% 29.92 in
(1013 mb)
SE 3.5 mph
(SE 6 kph)
- 10SM
21:54
Clear
46°F / 8°C 36°F / 2°C 66% 29.92 in
(1013 mb)
Calm - 10SM
20:54
Clear
48°F / 9°C 37°F / 3°C 66% 29.89 in
(1012 mb)
N 9.2 mph
(N 15 kph)
- 10SM
19:54
Mostly Cloudy
52°F / 11°C 37°F / 3°C 58% 29.89 in
(1012 mb)
N 6.9 mph
(N 11 kph)
- 10SM
19:25
Mostly Cloudy
55°F / 13°C 32°F / 0°C 41% 29.89 in
(1012 mb)
N 9.2 mph
(N 15 kph)
- 10SM
19:04
Mostly Cloudy
Thunder Storms
57°F / 14°C 34°F / 1°C 41% 29.86 in
(1011 mb)
NW 12.7 mph
(NW 20 kph)
- 10SM
18:54
Overcast
57°F / 14°C 34°F / 1°C 41% 29.86 in
(1011 mb)
NW 12.7 mph
(NW 20 kph)
- 10SM
18:40
Overcast
59°F / 15°C 32°F / 0°C 36% 29.86 in
(1011 mb)
NW 11.5 mph
(NW 19 kph)
- 10SM
18:19
Mostly Cloudy
Thunder Storms
59°F / 15°C 30°F / -1°C 34% 29.83 in
(1010 mb)
WNW 20.7 mph
(WNW 33 kph)
- 10SM
17:54
Partly Cloudy
61°F / 16°C 30°F / -1°C 31% 29.83 in
(1010 mb)
NW 23 mph
(NW 37 kph)
- 10SM
16:54
Clear
64°F / 18°C 32°F / 0°C 30% 29.77 in
(1008 mb)
NW 18.4 mph
(NW 30 kph)
- 10SM
15:54
Clear
64°F / 18°C 37°F / 3°C 37% 29.74 in
(1007 mb)
NNW 25.3 mph
(NNW 41 kph)
- 10SM
14:54
Clear
64°F / 18°C 37°F / 3°C 37% 29.77 in
(1008 mb)
NW 29.9 mph
(NW 48 kph)
- 10SM
13:54
Clear
64°F / 18°C 37°F / 3°C 37% 29.77 in
(1008 mb)
NW 26.5 mph
(NW 43 kph)
- 10SM
13:39
Partly Cloudy
64°F / 18°C 34°F / 1°C 32% 29.77 in
(1008 mb)
NW 25.3 mph
(NW 41 kph)
- 10SM
12:54
Partly Cloudy
73°F / 23°C 39°F / 4°C 29% 29.8 in
(1009 mb)
ENE 8.1 mph
(ENE 13 kph)
- 10SM
12:40
Clear
Thunder Storms
70°F / 21°C 39°F / 4°C 33% 29.8 in
(1009 mb)
SE 12.7 mph
(SE 20 kph)
- 10SM
11:54
Clear
70°F / 21°C 37°F / 3°C 31% 29.83 in
(1010 mb)
ENE 12.7 mph
(ENE 20 kph)
- 10SM
10:54
Clear
68°F / 20°C 41°F / 5°C 38% 29.89 in
(1012 mb)
NE 9.2 mph
(NE 15 kph)
- 10SM
09:54
Clear
64°F / 18°C 45°F / 7°C 49% 29.95 in
(1014 mb)
NE 6.9 mph
(NE 11 kph)
- 10SM
08:54
Clear
61°F / 16°C 43°F / 6°C 52% 29.95 in
(1014 mb)
Variable 3.5 mph
(Variable 6 kph)
0.00 in
(0.00 mm)
10SM
07:54
Clear
Light Rain
55°F / 13°C 39°F / 4°C 55% 29.98 in
(1015 mb)
Variable 4.6 mph
(Variable 7 kph)
0.00 in
(0.00 mm)
10SM
06:54
Clear
54°F / 12°C 36°F / 2°C 51% 30.01 in
(1016 mb)
Variable 4.6 mph
(Variable 7 kph)
- 10SM
05:54
Clear
48°F / 9°C 30°F / -1°C 50% 30.01 in
(1016 mb)
Calm - 10SM
04:54
Clear
41°F / 5°C 25°F / -4°C 53% 29.98 in
(1015 mb)
W 9.2 mph
(W 15 kph)
- 10SM
03:54
Clear
43°F / 6°C 25°F / -4°C 49% 29.95 in
(1014 mb)
WNW 9.2 mph
(WNW 15 kph)
- 10SM
02:54
Clear
43°F / 6°C 23°F / -5°C 46% 29.95 in
(1014 mb)
WNW 10.4 mph
(WNW 17 kph)
- 10SM
01:54
Clear
48°F / 9°C 19°F / -7°C 32% 29.95 in
(1014 mb)
SSW 12.7 mph
(SSW 20 kph)
- 10SM
00:54
Clear
50°F / 10°C 18°F / -8°C 28% 29.98 in
(1015 mb)
SSW 13.8 mph
(SSW 22 kph)
- 10SM
Time Weather Temperature Dewpoint Humidity Pressure Winds Precip Visibility


Weather for websites

WeatherForYou.com, LLC is not responsible for any damages or problems caused by this service. Current weather conditions are obtained from the closest station including government and personal stations which may have varying degrees of accuracy. Weather forecasts are derived from the NOAA NDFD. Like all things, this site belongs to Jesus Christ... He just trusts us to maintain it. If you have any questions or comments email webmaster@weatherforyou.com

Copyright © 2016, WeatherForYou.com LLC. All rights reserved.